Location: Chuathbaluk
(61.5726°N, 159.2454°W)
Time: 22:51:00
(UTC+00:00)

Explorer 7 - Pass Details

Date: 11 December 2021
Orbit: 483 x 674 km, 50.3° (Epoch: 21 January)

Event Time Altitude Azimuth Distance (km) Brightness Sun altitude
Exits shadow 15:22:40 16° 156° (SSE) 1,522 9.2 -28.2°
Drops below altitude 10° 15:24:36 10° 129° (SE) 1,848 10.1 -27.9°
Sets 15:27:25 0° 109° (ESE) 2,702 11.4 -27.6°
